User: anonymous   Login
Location: Unspecified
(0.0000°N, 0.0000°E)
Time: 17:25:07
(UTC+02:00)
Language:

ARIANE 5 R/B - Orbit

View from above orbital plane
View from above orbital plane
View from above satellite
View from above satellite

Ground track
Ground track

The orbit data is extracted from the following two-line orbital elements,

1 27387U 02009B   15211.86893664  .00000019  00000-0  20890-4 0  9991
2 27387 098.3682 166.4352 0033118 030.2987 026.0547 14.35851950702911
Epoch (UTC): 30 July 2015 20:51:16
Eccentricity: 0.0033118
inclination: 98.3682°
perigee height: 748 km
apogee height: 796 km
right ascension of ascending node: 166.4352°
argument of perigee: 30.2987°
revolutions per day: 14.35851950
mean anomaly at epoch: 26.0547°
orbit number at epoch: 70291

The dashed part of the orbit path shows where the satellite is in the earth's shadow,  

DLR